Starlink 34215

operational
NORAD ID: 64252 Int'l Des: 2025-119 Owner: SPXS Country: US Constellation: starlink
LEOCIRCULAR

Starlink 34215について

説明を読み込み中...

リアルタイム位置

3D地球を読み込み中...

次回通過

高度履歴

Altitude vs Time

uPlot chart will show altitude changes over time

軌道要素

1 64252U 25119V 25306.27929867 .00027277 00000-0 99644-3 0 9993
2 64252 43.0044 306.5895 0000361 258.9417 101.1394 15.27601476 24686
Epoch: Nov 2, 2025 • Age: 48 hours

現在のステータス

高度 481.8 km
速度 7.63 km/s
衛星直下点 15.79°N, 42.88°W
打ち上げ日 Jun 3, 2025
運用期間 0.4 years
タイプ internet

技術仕様

分類 Payload
質量 575.00 kg
乾燥質量 530.00 kg
総質量 575.00 kg
長さ 0.30 m
直径 4.10 m
スパン 29.00 m
形状 Box + pan
製造者 SPXS
バスタイプ Starlink V2MO
フェーズステータス In Orbit
所有者/国 SPXS/US

大規模コンステレーション

Loading constellations...